Temperature
23 25 26 26 26 26 24 22 22 22 22 22 21 21 22 22 22 22 22 22 22 22 21 21 20 20 20 20 19 19 19 18 18 18 17 17 17 17 17 16 16 16 16 16
24 25 26 26 26 26 25 25 23 23 22 21 22 22 22 22 22 22 22 22 22 22 21 21 21 20 20 19 19 19 18 18 18 18 17 17 17 16 16 16 16 16 16 16
22 23 24 24 24 25 24 24 23 22 22 21 20 21 21 22 22 22 22 22 22 22 21 21 21 20 20 19 19 18 18 18 18 17 17 17 16 16 16 16 16 15 15 15
20 23 23 22 23 24 23 22 22 21 21 21 21 22 22 22 22 22 22 22 22 22 21 21 21 20 20 19 19 18 18 18 17 17 17 16 16 16 16 15 15 15 15 15
18 21 22 23 23 23 22 21 21 21 21 21 21 21 20 21 22 22 22 22 22 22 21 21 20 20 19 19 18 18 18 17 17 17 17 16 16 16 15 15 15 15 14 14
18 21 21 21 22 23 22 20 20 20 20 20 21 19 19 21 22 22 22 22 22 21 21 20 20 19 19 18 18 18 17 17 17 16 16 16 16 15 15 15 14 14 14 14
19 20 20 21 22 22 21 19 20 20 20 20 19 19 20 21 21 21 21 21 21 21 20 20 19 19 19 18 18 17 17 17 16 16 16 16 15 15 14 14 14 14 14 14
17 19 19 20 21 19 19 20 20 20 20 20 20 20 20 20 20 20 20 20 20 20 19 19 18 18 18 18 17 17 16 16 16 16 16 15 15 14 14 14 14 14 13 13
17 17 18 20 20 20 21 20 20 20 20 20 20 19 20 20 20 20 20 19 19 19 18 18 18 18 17 17 17 16 16 16 15 15 15 15 14 14 14 13 13 13 13 13
16 17 18 19 20 21 21 21 21 21 20 20 20 19 19 19 19 19 19 18 18 18 18 17 17 17 17 17 16 16 16 15 15 15 14 14 14 13 13 13 13 13 13 12
16 16 18 19 19 20 20 20 20 20 20 20 20 19 19 18 18 18 18 18 17 17 17 17 16 16 16 16 16 16 15 15 14 14 14 14 13 13 13 13 13 12 12 12
15 16 16 18 19 19 20 20 20 19 19 19 19 18 18 18 17 17 17 17 17 16 16 16 16 16 16 15 15 15 15 14 14 14 13 13 13 12 12 12 12 12 12 12
18 18 18 18 18 19 19 19 19 19 19 18 18 18 18 17 17 17 16 16 16 16 16 15 15 15 15 15 14 14 14 14 13 13 13 13 12 12 12 12 12 11 11 11
18 18 17 17 18 18 18 18 18 18 18 18 17 17 17 16 16 16 16 15 15 15 15 15 15 14 14 14 14 14 13 13 13 13 12 12 12 12 12 12 11 11 11 10
18 18 17 17 17 17 17 17 17 17 17 17 16 16 16 16 15 15 15 15 14 14 14 14 14 14 14 13 13 13 13 13 12 12 12 12 12 12 11 11 11 11 10 10
17 17 17 17 17 17 16 16 16 16 16 16 16 16 15 15 15 15 14 14 14 14 14 13 13 13 13 13 13 12 12 12 12 12 12 12 11 11 11 11 11 10 10 10
17 16 16 16 16 16 16 16 16 15 15 15 15 15 15 15 14 14 14 14 13 13 13 13 13 13 12 12 12 12 12 12 12 12 11 11 11 11 11 10 10 10 10 9
16 16 16 16 16 15 15 15 15 15 15 15 15 14 14 14 14 14 13 13 13 13 12 12 12 12 12 12 12 12 12 11 11 11 11 11 11 10 10 10 10 10 9 9
15 15 15 15 15 15 15 15 14 14 14 14 14 14 14 13 13 13 13 12 12 12 12 12 12 12 12 12 11 11 11 11 11 11 11 10 10 10 10 10 10 9 9 9
15 15 14 14 14 14 14 14 14 14 14 13 13 13 13 13 12 12 12 12 12 12 12 11 11 11 11 11 11 11 11 11 11 11 10 10 10 10 10 10 9 9 9 9
14 14 14 14 14 13 13 13 13 13 13 13 13 12 12 12 12 11 11 11 11 11 11 11 11 11 11 11 11 11 11 11 10 10 10 10 10 10 10 10 9 9 9 9
13 13 13 13 13 13 13 13 13 13 12 12 12 12 12 11 11 11 11 11 11 11 11 11 11 11 11 11 11 10 10 10 10 10 10 10 10 10 10 9 9 9 9 9
12 12 12 12 12 12 12 12 12 12 12 11 11 11 11 11 11 11 10 10 10 10 10 10 10 10 10 10 10 10 10 10 10 10 10 10 9 9 9 9 9 9 9 9
11 11 11 11 11 11 11 11 11 11 11 11 10 10 10 10 10 10 10 10 10 10 10 10 10 10 10 10 10 10 10 10 10 10 9 9 9 9 9 9 9 9 9 9
10 10 10 11 11 11 11 10 10 10 10 10 10 10 10 10 10 10 10 10 9 9 9 9 9 9 10 9 10 10 9 9 9 9 9 9 9 9 9 9 9 9 9 9
10 10 10 10 10 10 10 10 10 10 10 9 9 9 9 9 9 9 9 9 9 9 9 9 9 9 9 9 9 9 9 9 9 9 9 9 9 9 9 9 9 9 9 8
10 10 10 10 10 10 10 10 10 9 9 9 9 9 9 9 9 9 9 9 9 9 9 9 9 9 9 9 9 9 9 9 9 9 9 9 9 9 9 8 8 8 8 8
Wind_Speed
5 4 1 1 5 3 4 8 8 8 9 9 9 9 10 10 10 10 9 8 9 8 7 7 7 7 7 7 6 6 6 5 4 4 5 5 4 4 4 4 4 4 4 3
2 3 4 4 5 3 3 4 5 7 5 4 5 6 7 8 10 9 8 8 8 7 7 7 7 7 7 7 7 7 7 6 5 5 6 5 4 4 5 5 4 4 4 4
1 4 5 4 5 2 2 1 5 6 6 6 6 7 7 8 10 9 8 7 7 7 8 7 7 7 7 7 7 7 7 7 6 6 6 5 5 5 5 5 4 4 3 4
3 4 2 7 3 3 5 5 4 5 7 10 8 6 5 6 9 8 8 8 7 6 6 6 6 6 6 7 7 7 7 7 7 7 6 6 6 5 5 4 5 4 4 4
4 2 4 5 4 2 4 5 4 6 7 7 7 7 5 2 5 7 8 8 8 7 7 6 7 7 7 7 6 7 6 6 6 7 7 6 6 5 5 5 5 4 4 5
5 4 4 5 6 2 7 3 4 5 6 5 6 5 1 0 3 4 5 5 6 7 7 7 6 7 8 7 6 5 5 6 6 6 7 6 5 5 5 5 5 5 5 4
4 3 4 5 6 3 4 4 2 3 5 5 4 5 4 3 4 4 6 6 6 7 7 6 6 7 7 6 5 5 5 6 6 6 6 6 5 5 6 6 5 5 5 4
5 3 5 5 3 4 5 3 4 6 5 6 7 7 6 6 6 6 6 6 6 6 5 4 6 7 7 5 5 6 7 6 6 5 5 5 6 5 5 6 6 5 5 4
6 5 3 2 5 5 6 6 5 6 6 8 8 7 7 6 5 6 6 5 5 6 5 4 4 6 7 5 6 8 7 6 5 5 4 4 5 5 5 4 5 4 4 3
5 3 3 5 5 4 4 7 7 8 8 8 8 7 6 6 5 6 6 5 5 6 5 4 3 4 5 6 6 8 7 6 6 6 5 5 4 3 4 4 4 4 4 4
4 3 6 6 4 4 5 7 9 8 7 7 8 7 6 5 5 5 5 5 4 4 5 4 4 4 4 5 7 7 7 6 6 5 6 6 5 4 2 2 2 5 4 5
3 3 4 1 2 4 6 6 7 8 7 5 7 7 6 5 4 5 4 5 5 5 5 5 5 4 4 4 6 8 6 5 5 5 5 5 6 5 9 6 5 4 5 6
4 3 4 3 4 5 5 6 7 8 8 6 6 7 7 5 4 5 5 5 5 4 5 4 4 4 4 4 5 6 6 6 5 5 5 5 4 5 4 6 10 9 7 7
5 6 6 4 3 4 6 8 8 8 7 6 7 7 7 6 5 5 4 4 4 5 5 5 5 4 3 4 5 6 6 6 6 5 5 4 4 4 5 5 4 3 4 5
6 6 5 4 5 5 6 7 8 7 6 6 6 7 7 7 5 4 4 4 4 5 4 5 4 3 2 4 5 5 5 4 5 4 4 4 4 4 4 4 5 4 3 2
5 6 6 5 4 4 4 5 6 4 4 5 5 5 5 5 5 5 4 4 5 4 3 4 3 2 3 4 5 4 4 7 6 5 4 4 4 4 4 4 4 4 4 3
5 3 2 2 2 2 2 3 4 4 4 5 5 5 5 6 5 5 3 3 4 4 4 4 3 2 3 4 5 4 4 5 7 5 4 4 4 4 4 4 4 4 3 4
5 4 3 4 4 3 3 4 5 5 4 5 5 5 5 4 4 4 3 3 3 3 2 2 3 3 3 4 4 4 4 4 3 4 4 4 4 4 4 4 4 4 3 3
5 5 4 3 3 4 4 4 3 4 4 5 6 5 4 3 4 3 3 4 4 3 1 2 4 4 4 4 4 4 4 4 4 4 4 5 5 4 4 4 3 4 4 4
5 4 4 4 4 5 4 4 5 5 4 5 5 5 4 3 3 3 4 3 2 2 3 3 4 3 3 3 4 3 4 4 5 4 4 4 4 3 3 3 3 3 3 3
4 4 4 4 4 4 4 4 5 5 4 5 5 5 4 3 3 4 4 2 0 2 4 5 4 2 2 3 4 3 4 4 4 4 3 3 3 3 3 3 3 4 3 3
3 3 3 3 4 3 2 3 4 5 5 5 5 5 4 4 4 3 3 2 2 4 4 3 2 3 3 4 3 3 4 4 3 3 3 3 3 2 2 3 3 3 3 3
2 2 3 3 2 2 2 3 4 5 5 5 5 5 4 4 3 4 2 1 3 5 4 3 3 5 6 4 3 3 3 3 3 3 2 2 2 2 3 3 3 3 3 3
2 2 2 2 3 4 4 3 4 4 5 5 4 4 5 4 3 2 3 5 6 6 4 3 4 5 5 3 3 3 3 2 2 2 2 2 2 2 2 2 2 1 2 2
2 2 2 3 3 3 4 4 5 5 5 4 4 4 3 3 3 3 3 4 6 6 3 2 3 4 3 3 3 3 3 3 3 3 2 2 2 2 2 2 2 2 2 1
2 2 2 3 3 4 4 4 4 4 4 3 3 3 3 3 4 4 3 4 4 4 3 2 2 3 2 2 2 2 2 3 3 3 3 3 3 3 2 2 2 2 2 1
3 3 3 3 3 3 4 4 4 4 4 4 4 3 4 4 4 3 3 3 2 2 2 2 2 2 2 2 2 2 3 3 3 3 3 3 3 2 2 3 2 2 2 2
Wind_Direction
189 204 159 295 285 262 192 188 183 200 188 207 198 171 158 153 149 151 159 165 167 164 164 163 161 165 165 162 155 148 139 138 140 129 117 108 102 100 102 101 105 104 97 87
8 7 16 337 311 296 255 200 171 154 192 206 173 137 133 144 144 150 162 170 165 159 153 157 161 165 165 165 158 149 144 144 140 130 119 117 116 111 105 100 95 95 95 95
316 349 36 322 283 249 269 290 160 174 192 155 138 138 154 155 145 148 155 155 154 160 158 167 168 161 164 162 152 149 150 148 145 137 135 136 129 118 114 109 98 92 90 98
102 58 232 249 294 98 82 32 72 127 144 146 153 147 130 142 146 150 154 149 151 163 160 161 156 153 152 147 146 147 146 148 150 145 144 138 129 127 125 116 108 102 97 102
114 148 274 304 332 16 95 24 23 104 120 132 126 90 49 69 136 157 159 155 154 158 156 150 151 150 141 140 141 144 149 150 150 148 144 139 137 135 130 118 108 100 94 99
118 141 213 264 301 309 103 44 345 102 128 134 112 111 201 35 97 117 119 127 134 137 133 138 144 140 136 141 139 146 151 146 143 141 141 143 144 134 125 121 119 113 100 89
136 165 252 273 300 39 105 206 272 113 129 127 122 154 164 119 87 91 100 106 114 121 129 139 134 131 133 136 146 144 133 128 127 133 139 138 132 128 128 124 119 116 108 88
141 158 248 297 37 111 169 171 114 100 101 105 105 99 93 90 91 88 87 90 97 102 104 108 120 127 132 141 141 129 126 126 125 124 129 131 129 129 132 133 127 123 114 97
161 187 233 26 107 135 138 117 109 107 104 109 105 99 95 89 92 97 97 95 97 105 96 88 108 132 138 142 131 129 128 126 119 112 109 118 129 136 136 136 137 141 137 129
86 67 67 61 74 81 95 104 105 108 112 111 109 108 101 99 92 93 94 94 96 99 100 93 97 111 133 136 130 130 130 127 124 119 107 94 92 112 135 147 150 152 152 150
85 81 54 33 37 71 87 90 91 95 102 111 115 110 106 102 96 92 92 91 97 105 107 98 87 92 111 125 128 127 128 128 123 117 115 97 80 62 92 111 162 166 171 164
167 208 141 137 24 59 85 95 102 100 89 91 109 113 109 103 99 97 95 95 93 94 99 98 93 87 87 104 125 129 129 130 128 124 120 119 113 85 53 65 76 99 129 137
139 140 116 96 56 57 78 81 85 93 101 99 93 100 97 99 96 96 94 95 102 110 108 104 101 99 99 108 122 132 138 139 136 133 134 135 133 129 113 59 57 67 86 107
97 92 73 58 56 53 74 84 81 80 86 98 103 102 99 92 90 98 104 108 109 112 112 109 105 102 117 123 123 127 133 139 140 141 143 143 144 142 144 141 125 80 59 88
70 88 106 89 67 61 66 84 84 83 87 86 92 103 111 115 117 115 111 109 103 105 109 111 111 108 113 119 123 128 130 134 135 134 139 142 140 137 138 140 140 136 119 83
86 80 81 72 66 66 71 94 100 99 99 103 100 104 109 111 109 104 104 121 120 119 115 111 117 126 114 117 120 119 126 135 136 135 133 134 137 139 142 143 144 148 156 161
97 83 76 101 108 86 106 117 118 124 120 120 119 109 101 100 102 107 117 123 125 125 122 119 123 120 118 120 121 124 120 130 129 125 131 137 141 146 150 152 156 161 172 177
112 123 144 155 157 139 119 105 110 114 127 135 125 111 113 124 133 139 141 125 102 90 95 123 127 120 115 120 123 125 124 124 125 128 127 127 133 143 149 156 163 165 169 173
89 91 87 92 117 128 129 132 129 126 128 128 123 122 127 135 137 133 127 119 123 128 138 111 112 111 109 118 119 121 126 127 126 126 124 126 125 129 138 147 158 166 169 172
62 73 75 73 81 97 107 109 110 112 114 118 117 118 119 128 127 121 121 121 146 166 158 127 113 105 98 101 105 110 122 130 131 133 134 134 139 143 149 155 161 169 177 183
67 72 73 74 77 79 91 105 113 114 118 121 124 133 139 136 128 125 124 116 82 115 111 104 96 96 95 107 107 110 120 127 130 134 139 143 148 155 165 172 175 181 188 192
83 92 85 87 91 79 64 96 114 120 117 115 115 118 117 112 105 97 99 136 142 119 106 94 92 97 95 93 100 109 117 122 127 134 140 146 154 162 171 176 176 181 185 187
90 104 98 102 106 89 80 100 112 120 118 115 115 114 115 119 121 121 115 106 119 112 104 98 101 95 85 77 84 98 117 127 131 140 147 151 162 169 169 169 170 172 173 186
91 97 104 108 103 99 101 103 104 107 106 102 105 112 115 109 87 78 115 119 113 105 95 96 98 88 79 71 75 92 108 118 125 129 135 140 148 155 160 161 160 170 183 186
102 103 108 108 109 117 118 111 101 99 99 99 95 93 96 113 128 129 116 115 115 104 95 94 96 83 71 67 77 88 95 100 101 102 103 112 116 116 124 140 149 145 144 150
115 121 117 122 131 131 129 123 118 120 119 113 97 92 97 98 105 110 109 113 114 110 105 100 97 87 80 75 77 88 97 97 91 89 95 100 98 100 105 116 131 137 143 153
89 94 99 97 99 112 116 117 120 121 125 127 123 116 114 110 107 113 113 110 107 109 108 100 97 105 106 95 81 74 74 79 88 96 96 95 95 98 101 112 114 106 98 97
Height
1503 1500 1498 1500 1500 1500 1508 1515 1524 1522 1520 1515 1511 1510 1512 1513 1516 1519 1521 1524 1526 1527 1528 1530 1531 1533 1535 1535 1536 1536 1537 1537 1538 1538 1539 1539 1540 1540 1540 1541 1542 1542 1542 1542
1502 1497 1497 1500 1498 1498 1500 1503 1508 1511 1514 1507 1508 1509 1511 1513 1515 1518 1520 1522 1524 1526 1527 1529 1530 1532 1534 1534 1535 1535 1536 1536 1537 1538 1538 1538 1539 1539 1540 1540 1540 1540 1540 1540
1515 1504 1503 1513 1502 1500 1501 1499 1502 1510 1509 1506 1508 1509 1510 1512 1514 1516 1518 1520 1522 1524 1526 1528 1529 1531 1532 1533 1534 1535 1535 1536 1537 1537 1538 1538 1538 1539 1539 1539 1539 1539 1539 1539
1517 1513 1525 1515 1496 1495 1499 1501 1499 1500 1502 1504 1506 1508 1510 1512 1513 1515 1517 1519 1522 1524 1526 1527 1528 1529 1531 1532 1532 1533 1534 1535 1536 1536 1537 1537 1538 1538 1539 1539 1539 1539 1538 1538
1523 1525 1520 1506 1498 1497 1502 1508 1502 1501 1502 1505 1506 1510 1513 1514 1515 1515 1517 1518 1520 1522 1524 1525 1527 1528 1529 1530 1531 1532 1533 1534 1534 1535 1536 1536 1537 1538 1538 1538 1538 1538 1538 1537
1520 1522 1527 1513 1498 1495 1499 1514 1505 1502 1503 1505 1506 1514 1517 1514 1515 1515 1517 1518 1520 1521 1522 1524 1525 1526 1527 1528 1529 1530 1531 1532 1533 1534 1535 1535 1536 1537 1537 1538 1538 1538 1538 1537
1518 1522 1518 1503 1497 1496 1514 1517 1506 1503 1504 1506 1507 1510 1513 1513 1514 1515 1517 1518 1520 1521 1522 1523 1524 1525 1526 1527 1528 1529 1530 1531 1532 1533 1534 1535 1535 1536 1536 1537 1537 1537 1537 1537
1519 1524 1521 1500 1498 1504 1508 1504 1504 1504 1506 1507 1508 1510 1512 1514 1515 1516 1517 1518 1519 1521 1522 1523 1524 1525 1525 1526 1527 1528 1529 1530 1531 1532 1533 1533 1534 1535 1535 1536 1536 1536 1536 1537
1509 1514 1505 1500 1500 1502 1502 1503 1504 1505 1506 1509 1510 1511 1513 1515 1516 1517 1518 1519 1520 1521 1522 1523 1524 1525 1525 1525 1526 1527 1528 1529 1529 1530 1531 1532 1532 1533 1534 1534 1535 1535 1535 1536
1505 1506 1504 1503 1503 1504 1503 1503 1505 1506 1508 1510 1511 1512 1513 1515 1516 1517 1518 1520 1520 1521 1522 1522 1523 1524 1524 1525 1525 1526 1527 1527 1528 1528 1529 1530 1531 1531 1532 1533 1534 1534 1534 1535
1507 1506 1506 1506 1506 1506 1505 1505 1506 1507 1509 1511 1512 1513 1514 1516 1517 1518 1519 1520 1521 1521 1522 1522 1523 1523 1524 1524 1524 1525 1525 1526 1526 1527 1527 1528 1529 1530 1531 1532 1533 1533 1534 1534
1509 1507 1507 1508 1508 1508 1507 1507 1507 1508 1511 1513 1513 1514 1516 1517 1518 1519 1519 1520 1520 1521 1521 1521 1521 1522 1522 1523 1523 1524 1524 1524 1525 1525 1526 1527 1528 1529 1530 1531 1532 1532 1533 1534
1504 1506 1507 1508 1509 1509 1509 1508 1509 1510 1511 1513 1514 1515 1516 1517 1518 1519 1520 1520 1520 1521 1521 1521 1521 1521 1521 1522 1522 1523 1523 1524 1524 1525 1525 1526 1527 1528 1528 1530 1530 1531 1532 1533
1506 1507 1508 1509 1510 1510 1510 1510 1510 1512 1513 1513 1514 1515 1516 1517 1519 1520 1520 1520 1520 1520 1520 1520 1520 1520 1521 1521 1521 1522 1523 1523 1523 1524 1525 1525 1526 1527 1528 1528 1529 1530 1531 1532
1507 1508 1509 1510 1511 1511 1511 1511 1511 1512 1513 1514 1515 1516 1516 1517 1518 1519 1519 1520 1519 1519 1519 1519 1519 1520 1520 1520 1520 1521 1522 1522 1523 1524 1525 1525 1526 1527 1527 1528 1528 1529 1530 1531
1507 1508 1509 1510 1511 1511 1512 1512 1512 1513 1514 1514 1515 1516 1517 1517 1517 1518 1519 1519 1518 1518 1518 1518 1518 1519 1519 1520 1520 1521 1521 1522 1523 1524 1524 1525 1525 1526 1527 1527 1528 1529 1530 1531
1506 1508 1508 1508 1509 1510 1511 1511 1511 1512 1513 1514 1515 1516 1516 1516 1517 1517 1517 1517 1517 1517 1517 1518 1518 1519 1519 1520 1520 1521 1521 1521 1522 1523 1524 1524 1525 1526 1526 1527 1528 1529 1529 1531
1505 1506 1508 1507 1507 1508 1509 1509 1511 1512 1512 1513 1514 1514 1515 1515 1516 1516 1516 1516 1517 1517 1517 1518 1518 1519 1519 1519 1520 1520 1521 1522 1522 1523 1524 1524 1525 1526 1526 1527 1528 1528 1529 1530
1504 1505 1506 1507 1507 1508 1508 1509 1510 1510 1511 1512 1513 1513 1514 1514 1514 1515 1515 1515 1516 1516 1517 1518 1518 1518 1519 1519 1520 1521 1521 1522 1523 1523 1524 1525 1525 1526 1526 1527 1528 1529 1529 1530
1503 1505 1505 1506 1506 1507 1507 1508 1509 1510 1511 1512 1512 1512 1512 1513 1513 1514 1514 1515 1515 1516 1517 1517 1518 1518 1519 1519 1520 1521 1521 1522 1523 1523 1524 1525 1526 1527 1527 1528 1529 1529 1529 1530
1503 1504 1504 1505 1505 1506 1507 1507 1508 1508 1510 1511 1511 1511 1512 1512 1513 1513 1514 1514 1515 1516 1516 1517 1518 1518 1519 1519 1520 1521 1522 1522 1523 1524 1525 1525 1526 1527 1528 1528 1529 1529 1530 1530
1502 1503 1503 1504 1504 1505 1506 1507 1507 1508 1509 1509 1510 1510 1511 1511 1512 1513 1513 1514 1515 1515 1516 1517 1518 1518 1519 1520 1520 1521 1522 1523 1523 1524 1525 1525 1526 1527 1527 1528 1528 1529 1529 1529
1501 1501 1502 1502 1503 1504 1505 1506 1507 1507 1508 1508 1509 1510 1510 1511 1511 1512 1513 1514 1515 1516 1517 1517 1518 1519 1520 1520 1521 1521 1522 1523 1524 1524 1525 1525 1526 1527 1527 1528 1528 1528 1529 1529
1499 1499 1500 1501 1502 1503 1504 1505 1506 1507 1508 1509 1509 1510 1511 1511 1512 1512 1513 1514 1515 1516 1517 1518 1519 1520 1520 1521 1521 1522 1523 1524 1524 1525 1525 1526 1526 1527 1527 1528 1528 1528 1528 1528
1498 1499 1499 1500 1501 1502 1504 1505 1506 1507 1508 1509 1510 1511 1511 1512 1512 1513 1514 1515 1516 1517 1518 1519 1520 1521 1522 1522 1523 1524 1524 1525 1525 1526 1526 1526 1527 1527 1527 1527 1527 1527 1528 1528
1498 1498 1499 1500 1501 1502 1504 1505 1506 1507 1508 1510 1511 1512 1513 1513 1514 1515 1515 1516 1517 1518 1519 1520 1521 1522 1523 1523 1524 1525 1525 1526 1526 1526 1527 1527 1527 1528 1528 1527 1527 1527 1527 1527
1498 1499 1500 1501 1502 1503 1504 1506 1507 1508 1510 1511 1512 1513 1514 1515 1516 1517 1517 1518 1519 1520 1521 1522 1523 1524 1525 1525 1526 1526 1526 1527 1527 1527 1528 1528 1528 1528 1528 1527 1527 1527 1526 1526